Weather observations for the past three days for
Hurlburt Field
Imperial (Metric)
Date Time (cdt) Wind (mph) Vis. (mi.) Weather Sky Cond. Temperature (ºF) Relative Humidity Wind Chill (°F) Heat Index (°F) Pressure Precipitation (in)
Air Dwpt 6 hour altimeter (in) sea level (mb) 1 hr 3 hr 6 hr
Max. Min.
24 10:55 SE 7 10.00 Partly Cloudy SCT020 SCT200 87.6 76.5 70% 99 30.13 1020.1
24 09:55 SE 7 10.00 Mostly Cloudy SCT016 BKN200 86.5 77.5 75% 99 30.13 1020.1
24 08:55 E 6 10.00 Mostly Cloudy SCT015 BKN200 82.6 77.2 84% 91 30.12 1019.8
24 07:55 NE 8 10.00 Mostly Cloudy SCT030 BKN180 81.3 75.9 84% 88 30.12 1019.8
24 06:55 NE 3 10.00 Mostly Cloudy SCT030 BKN200 78.6 76.1 82.4 78.3 92% 82 30.11 1019.4
24 05:55 NE 3 10.00 Mostly Cloudy FEW020 BKN140 78.4 75.6 91% 82 30.11 1019.4
24 04:55 NE 3 10.00 A Few Clouds FEW020 81.1 76.1 85% 88 30.1 1019.1
24 03:55 NE 6 10.00 A Few Clouds FEW035 81 76.3 86% 87 30.09 1018.7
24 02:55 E 8 10.00 Mostly Cloudy FEW120 BKN140 81.1 75.7 84% 88 30.1 1019.1
24 01:55 N 5 10.00 Mostly Cloudy BKN070 79.3 76.5 91% 84 30.1 1019.1
24 00:55 N 5 10.00 Partly Cloudy SCT100 81.3 76.3 88 80.6 85% 88 30.12 1019.8
23 23:55 E 10 10.00 A Few Clouds FEW150 81.7 75.9 83% 89 30.11 1019.4
23 22:55 N 5 10.00 Mostly Cloudy BKN200 81.5 76.1 84% 88 30.13 1020.1
23 21:55 N 5 10.00 Fair CLR 81.7 77 86% 89 30.11 1019.4
23 20:55 Calm 10.00 A Few Clouds FEW250 86 76.6 74% 97 30.1 1019.1
23 19:55 Calm 10.00 Partly Cloudy SCT250 86.2 75.6 71% 96 30.08 1018.4
23 18:55 S 3 10.00 Partly Cloudy SCT220 87.3 75.4 90.9 87.1 68% 97 30.06 1017.7
23 17:55 S 7 10.00 Partly Cloudy SCT210 88.3 75 65% 98 30.06 1017.7
23 16:55 S 7 10.00 Partly Cloudy FEW030 SCT250 88.7 76.3 67% 100 30.05 1017.4
23 15:55 SE 8 10.00 A Few Clouds FEW040 FEW220 90.9 76.8 64% 104 30.06 1017.7
23 14:55 S 12 10.00 Fair CLR 90 76.5 65% 102 30.06 1017.7
23 13:55 S 10 10.00 Partly Cloudy FEW030 SCT200 90.1 75.2 62% 101 30.07 1018.1
23 12:55 SE 12 10.00 Partly Cloudy FEW030 SCT160 SCT200 89.2 77.2 90.5 79.5 68% 102 30.08 1018.4
23 11:55 SE 10 10.00 Partly Cloudy FEW020 SCT250 89.1 76.6 67% 101 30.09 1018.7
23 10:55 SE 8 10.00 Partly Cloudy SCT020 SCT250 88.7 77.9 71% 102 30.09 1018.7
23 09:55 S 6 10.00 Mostly Cloudy SCT020 BKN250 86.9 77.2 73% 99 30.09 1018.7
23 08:55 Calm 10.00 Mostly Cloudy SCT019 BKN150 BKN250 85.8 76.8 75% 97 30.08 1018.4
23 07:55 Calm 10.00 Partly Cloudy FEW030 FEW120 SCT250 83.8 77 80% 94 30.07 1018.1
23 06:55 Calm 10.00 A Few Clouds FEW060 79.3 75.7 84 76.3 89% 84 30.06 1017.7
23 05:55 Calm 10.00 Partly Cloudy SCT080 76.8 74.3 92% 78 30.04 1017.0
23 04:55 N 3 10.00 A Few Clouds FEW080 76.8 74.3 92% 78 30.04 1017.0
23 03:55 N 6 10.00 A Few Clouds FEW060 77 74.1 91% 78 30.03 1016.7
23 02:55 N 6 10.00 A Few Clouds FEW150 77.7 74.8 91% 80 30.02 1016.4
23 01:55 N 3 10.00 A Few Clouds FEW100 78.8 75.2 89% 82 30.03 1016.7
23 00:55 Calm 10.00 A Few Clouds FEW100 83.7 75.6 85.8 83.7 77% 92 30.03 1016.7
22 23:55 S 5 10.00 A Few Clouds FEW100 84.4 75.9 76% 93 30.03 1016.7
22 22:55 S 7 10.00 Mostly Cloudy BKN160 84.4 75.9 76% 93 30.04 0.0
22 21:55 S 7 10.00 Fair CLR 84.2 74.5 73% 92 30.04 1017.6
22 20:55 S 7 10.00 A Few Clouds FEW040 84.6 73.2 69% 91 30.03 1016.7
22 19:55 S 6 10.00 A Few Clouds FEW025 84.7 73.4 69% 92 30.01 1016.0
22 18:55 S 8 10.00 Partly Cloudy FEW025 SCT200 85.3 74.3 89.4 85.1 70% 93 29.99 1015.4
22 17:55 S 8 10.00 A Few Clouds FEW020 FEW200 87.3 75.7 69% 98 29.98 1015.0
22 16:55 S 8 10.00 A Few Clouds FEW040 FEW200 87.8 75.9 68% 99 29.97 1014.7
22 15:55 S 10 10.00 A Few Clouds FEW040 FEW200 88.7 74.5 63% 98 29.98 1015.0
22 14:55 SW 9 10.00 Partly Cloudy FEW040 SCT180 88.3 76.3 68% 100 30 1015.7
22 13:55 S 10 10.00 Mostly Cloudy SCT040 BKN160 87.6 76.1 69% 99 30.03 1016.7
22 12:55 S 5 10.00 Mostly Cloudy BKN130 BKN180 85.6 74.3 87.1 76.3 69% 94 30.03 1016.7
22 11:55 S 5 10.00 Mostly Cloudy FEW025 BKN080 BKN170 86 77 75% 97 30.05 0.0
22 10:55 N 10 10.00 Thunderstorm in Vicinity SCT020CB BKN090 80.6 77 89% 87 30.07 1018.2
22 09:55 S 6 10.00 Showers in Vicinity SCT040 BKN250 84 75.6 76% 92 30.04 1017.0
22 08:55 Calm 10.00 Mostly Cloudy SCT040 BKN250 84 75.6 76% 92 30.04 1017.0
22 07:55 Calm 10.00 Mostly Cloudy FEW030 BKN170 80.4 75 84% 86 30.03 1016.7
22 06:55 N 3 10.00 Mostly Cloudy SCT030 BKN150 76.3 73.4 78.1 74.7 91% 77 30.01 1016.0
22 05:55 N 5 10.00 Mostly Cloudy SCT100 BKN150 74.8 72.7 93% 30 1015.7
22 04:55 Calm 10.00 Mostly Cloudy BKN160 75.9 73.4 92% 76 29.99 1015.4
22 03:55 NE 3 10.00 A Few Clouds FEW150 75.9 73.8 93% 76 29.99 1015.4
22 02:55 Calm 10.00 Fair CLR 76.3 74.1 93% 76 30 1015.7
22 01:55 N 3 10.00 A Few Clouds FEW200 77 73.8 90% 78 30 1015.7
22 00:55 Calm 10.00 Overcast OVC140 78.3 74.3 84.2 78.1 88% 81 30.03 1016.7 0.02
21 23:55 Calm 10.00 Light Rain SCT065 79 76.5 92% 83 30.04 1017.1 0.02
21 22:55 Calm 10.00 Light Rain SCT050 SCT140 81.1 74.3 80% 87 30.05 1017.4
21 21:55 Calm 10.00 Overcast OVC150 81.1 73.6 78% 86 30.04 1017.0
21 20:55 Calm 10.00 Overcast OVC160 81.5 72.7 75% 86 30.04 1017.0
21 19:55 W 6 10.00 Partly Cloudy SCT160 SCT180 82.8 72 70% 88 30.03 1016.7
21 18:55 S 3 10.00 Fair CLR 84.4 71.2 87.8 76.8 65% 90 30 1015.7
21 17:55 SW 5 10.00 Fair CLR 84.7 69.8 61% 89 29.99 1015.4
21 16:55 S 7 10.00 Fair CLR 86.5 69.4 57% 91 29.98 1015.0
21 15:55 S 8 10.00 Overcast BKN190 OVC210 86.7 71.1 60% 92 30 1015.7
21 14:55 S 9 10.00 A Few Clouds FEW200 86 72.9 65% 93 30.02 1016.4
21 13:55 NW 3 10.00 Partly Cloudy SCT200 84 70 63% 88 30.02 1016.4
21 12:55 Calm 10.00 Light Rain FEW050 BKN110 76.6 72.1 88.7 75.2 86% 78 30.04 1017.0 0.07 0.23
21 11:55 Calm 6.00 Thunderstorm in Vicinity Light Rain BKN060CB OVC100 75.7 71.6 87% 76 30.05 1017.4 0.16
Date Time (cdt) Wind (mph) Vis. (mi.) Weather Sky Cond. Air Dwpt Max. Min. Relative Humidity Wind Chill (°F) Heat Index (°F) altimeter (in) sea level (mb) 1 hr 3 hr 6 hr
6 hour
Temperature (ºF) Pressure Precipitation (in)